Regional Weather Roundup
Issued by NWS

Home | Current Version | Previous Version | Graphics & Text | Print | Product List | Glossary On
Versions: 1 2 3 4 5 6 7 8 9 10 11 12 13 14 15 16 17 18 19 20 21 22 23 24 25 26 27 28 29 30 31 32 33 34 35 36 37 38 39 40 41 42 43 44 45 46 47 48 49 50
000
ASUS43 KDTX 241201
RWRMI
MICHIGAN HOURLY REGIONAL WEATHER ROUNDUP
NATIONAL WEATHER SERVICE DETROIT/PONTIAC MI
800 AM EDT SUN MAY 24 2015

NOTE: "FAIR" INDICATES FEW OR NO CLOUDS BELOW 12,000 FEET WITH NO
SIGNIFICANT WEATHER AND/OR OBSTRUCTION TO VISIBILITY.

MIZ047>049-052>055-059>063-066>070-074>076-081>083-241300-
SOUTHEAST LOWER MICHIGAN

CITY           SKY/WX    TMP DP  RH WIND       PRES   REMARKS
ADRIAN         MOSUNNY   57  49  74 CALM      30.29S
6HR MIN TEMP:  49; 6HR MAX TEMP:  57;

ALMA           MOSUNNY   60  49  67 S6        30.24F
ANN ARBOR      MOSUNNY   57  51  80 SW3       30.27S
BAD AXE        SUNNY     58  44  60 SW3       30.25F
CARO           MOSUNNY   52  50  90 CALM      30.24F
DETROIT CITY   SUNNY     62  48  60 SW6       30.28S
6HR MIN TEMP:  54; 6HR MAX TEMP:  62;

DETROIT        PTSUNNY   59  49  69 S5        30.28S
6HR MIN TEMP:  53; 6HR MAX TEMP:  59;

FLINT          SUNNY     66  46  48 SW8       30.26S
6HR MIN TEMP:  51; 6HR MAX TEMP:  66;

GROSSE ILE     SUNNY     61  52  72 S8        30.27S
HILLSDALE      MOSUNNY   63  51  63 CALM      30.27F
HOWELL         MOSUNNY   60  46  61 CALM      30.26S
6HR MIN TEMP:  54; 6HR MAX TEMP:  61;


CITY           SKY/WX    TMP DP  RH WIND       PRES   REMARKS
JACKSON        PTSUNNY   58  50  75 CALM      30.27S
6HR MIN TEMP:  50; 6HR MAX TEMP:  58;

LAMBERTVILLE   FAIR      63  46  55 CALM      30.29S
LANSING        PTSUNNY   62  48  60 S5        30.25F
6HR MIN TEMP:  56; 6HR MAX TEMP:  62;

LAPEER         FAIR      57  49  74 CALM      30.25F
MASON          PTSUNNY   57  49  75 CALM      30.26F
MONROE         SUNNY     59  50  72 CALM      30.27S
MT. CLEMENS    PTSUNNY   59  49  70 CALM      30.24F
6HR MIN TEMP:  48; 6HR MAX TEMP:  59;

PONTIAC        MOSUNNY   62  47  57 W6        30.27S
6HR MIN TEMP:  50; 6HR MAX TEMP:  62;

PORT HOPE        N/A     60  41  49 SW7       30.22F
6HR MIN TEMP:  53; 6HR MAX TEMP:  60;

PORT HURON     SUNNY     54  50  87 S3        30.26F
TRI CITIES     SUNNY     61  45  55 SW8       30.24F
6HR MIN TEMP:  55; 6HR MAX TEMP:  61;

MIDLAND        FAIR      51  48  89 CALM      30.22F
TROY           SUNNY     62  47  59 SW5       30.29S
SAGINAW HB     SUNNY     61  45  55 S5        30.23F
$$
MIZ043>046-050>051-056>058-064>065-071>073-077>080-241300-
SOUTHWEST LOWER MICHIGAN

CITY           SKY/WX    TMP DP  RH WIND       PRES   REMARKS
BATTLE CREEK   PTSUNNY   60  49  66 S6        30.26S
6HR MIN TEMP:  52; 6HR MAX TEMP:  61;

BENTON HARBOR  CLOUDY    57  51  80 SE5       30.22S
6HR MIN TEMP:  49; 6HR MAX TEMP:  57;

BIG RAPIDS     MOSUNNY   53  46  77 CALM      30.21F
6HR MIN TEMP:  47; 6HR MAX TEMP:  53;

COLDWATER      MOSUNNY   58  52  81 CALM      30.26F
6HR MIN TEMP:  48; 6HR MAX TEMP:  60;

FREMONT        FAIR      56  47  71 CALM      30.21F
HOLLAND        CLOUDY    58  51  78 S3        30.23S
6HR MIN TEMP:  53; 6HR MAX TEMP:  62;

GRAND RAPIDS   CLOUDY    58  50  75 SE5       30.23F
6HR MIN TEMP:  53; 6HR MAX TEMP:  60;

IONIA          FAIR      61  51  70 CALM      30.23F
KALAMAZOO      PTSUNNY   60  49  66 S3        30.25F
6HR MIN TEMP:  52; 6HR MAX TEMP:  60;

LUDINGTON      PTSUNNY   61  49  64 SE3       30.18F
MARSHALL       PTSUNNY   59  50  73 CALM      30.26S
MOUNT PLEASANT MOSUNNY   60  48  64 CALM      30.22F
6HR MIN TEMP:  48; 6HR MAX TEMP:  60;

MUSKEGON       CLOUDY    58  48  69 SE5       30.21F
6HR MIN TEMP:  50; 6HR MAX TEMP:  58;

SOUTH HAVEN    PTSUNNY   60  49  67 CALM      30.22S
$$
MIZ016>042-241300-
NORTHERN LOWER MICHIGAN

CITY           SKY/WX    TMP DP  RH WIND       PRES   REMARKS
ALPENA         CLOUDY    60  41  49 SW6       30.21S
6HR MIN TEMP:  45; 6HR MAX TEMP:  60;

BEAVER ISLAND  CLOUDY    60  41  49 W5        30.18F
6HR MIN TEMP:  51; 6HR MAX TEMP:  60;

BELLAIRE       CLOUDY    54  46  76 CALM      30.20F
6HR MIN TEMP:  41; 6HR MAX TEMP:  54;

CADILLAC       MOSUNNY   54  45  72 CALM      30.21F
CHARLEVOIX     CLOUDY    56  44  63 CALM      30.23S
FRANKFORT      PTSUNNY   58  44  60 CALM      30.18F
GAYLORD        CLOUDY    57  45  64 CALM      30.22F
6HR MIN TEMP:  52; 6HR MAX TEMP:  57;

HARBOR SPRINGS CLOUDY    56  45  66 CALM      30.21S
HOUGHTON LAKE  PTSUNNY   52  48  86 CALM      30.23F
6HR MIN TEMP:  42; 6HR MAX TEMP:  52;

MANISTEE       MOSUNNY   54  45  71 E5        30.19F
OSCODA         MOSUNNY   56  42  61 SW6       30.22F
PELLSTON       CLOUDY    63  41  44 W7        30.20R
6HR MIN TEMP:  54; 6HR MAX TEMP:  64;

ROGERS CITY    PTSUNNY   63  41  44 W7        30.20S
TRAVERSE CITY  PTSUNNY   58  43  57 CALM      30.19F
6HR MIN TEMP:  54; 6HR MAX TEMP:  61;

$$
MIZ007>008-015-241300-
EASTERN UPPER MICHIGAN

CITY           SKY/WX    TMP DP  RH WIND       PRES   REMARKS
KINROSS        SUNNY     54  43  66 W6        30.18F
6HR MIN TEMP:  48; 6HR MAX TEMP:  54;

MACKINAC ISLAN PTSUNNY   58  40  51 W8        30.19S
6HR MIN TEMP:  52; 6HR MAX TEMP:  58;

NEWBERRY       PTSUNNY   56  43  63 SW12      30.17S
S. S. MARIE    SUNNY     52  39  61 CALM      30.17S
6HR MIN TEMP:  44; 6HR MAX TEMP:  53;

$$
MIZ004>006-011>014-085-241300-
CENTRAL UPPER MICHIGAN

CITY           SKY/WX    TMP DP  RH WIND       PRES   REMARKS
MANISTIQUE     CLOUDY    53  47  81 CALM      30.16F
6HR MIN TEMP:  47; 6HR MAX TEMP:  53;

ESCANABA       CLOUDY    57  48  72 CALM      30.15F
6HR MIN TEMP:  55; 6HR MAX TEMP:  61;

MENOMINEE      CLOUDY    59  48  67 CALM      30.15F
6HR MIN TEMP:  55; 6HR MAX TEMP:  63;

SAWYER-GWINN   PTSUNNY   54  43  66 CALM      30.16F
$$
MIZ001>003-009>011-084-241300-
WESTERN UPPER MICHIGAN

CITY           SKY/WX    TMP DP  RH WIND       PRES   REMARKS
IRON MOUNTAIN  CLOUDY    58  50  75 N5        30.15F
6HR MIN TEMP:  56; 6HR MAX TEMP:  62;

HOUGHTON       PTSUNNY   62  42  47 W12       30.12F
6HR MIN TEMP:  56; 6HR MAX TEMP:  63;

COPPER HARBOR    N/A     62  43  49 CALM      30.09S
6HR MIN TEMP:  57; 6HR MAX TEMP:  67;

IRONWOOD       CLOUDY    52  48  87 CALM      30.12F
6HR MIN TEMP:  43; 6HR MAX TEMP:  52;

$$

ABBREVIATIONS USED IN REMARKS
   TC - TEMPERATURE IN CELSIUS
  WCI - WIND CHILL INDEX
   HX - HEAT INDEX
  VSB - VISIBILITY




USA.gov is the U.S. government's official web portal to all federal, state and local government web resources and services.